Pope Field Airport, NC

9:21 PM EDT on March 23, 2017 (GMT -0400)
Pope Field Airport

Weather History for KPOB - August, 2014

Change the Weather History Date:

Friday, August 15, 2014

  Actual Average Record
Temperature  
Mean Temperature 73 °F -  
Max Temperature 87 °F 86 °F 98 °F (1997)
Min Temperature 60 °F 70 °F 56 °F (1983)
Cooling Degree Days 8    
Growing Degree Days 23 (Base 50)    
Moisture  
Dew Point 63 °F    
Average Humidity 73    
Maximum Humidity 94    
Minimum Humidity 48    
Precipitation  
Precipitation 0.00 in - - ()
Sea Level Pressure  
Sea Level Pressure 30.00 in    
Wind  
Wind Speed 2 mph (West)    
Max Wind Speed 9 mph    
Max Gust Speed -    
Visibility 9 miles    
Events Rain    
Averages and records for this station are not official NWS values.
T = Trace of Precipitation, MM = Missing Value Source: NWS Daily Summary

Daily Weather History Graph

Daily Weather History Graph

Search for Another Location

Airport or City:

Trip Planner

Search our weather history database for the weather conditions in past years. The results will help you decide how hot, cold, wet, or windy it might be!

Date:

Astronomy

Aug. 15, 2014 Rise Set
Actual Time 6:35 AM EDT 8:04 PM EDT
Civil Twilight 6:08 AM EDT 8:31 PM EDT
Nautical Twilight 5:36 AM EDT 9:03 PM EDT
Astronomical Twilight 5:02 AM EDT 9:37 PM EDT
Moon 11:20 PM EDT (8/15) 12:02 PM EDT (8/15)
Length of Visible Light 14h 22m
Length of Day
13h 28m
Waning Gibbous, 69% of the Moon is Illuminated
Aug 15
Waning Gibbous
Aug 17
Last Quarter
Aug 25
New
Sep 2
First Quarter
Sep 8
Full

Hourly Weather History & Observations

Time (EDT) Temp. Heat Index Dew Point Humidity Pressure Visibility Wind Dir Wind Speed Gust Speed Precip Events Conditions
12:28 AM 66.2 °F - 62.6 °F 88% 30.01 in 9.0 mi North 2.3 mph - N/A   Clear
12:33 AM 66.2 °F - 62.6 °F 88% 30.01 in 10.0 mi North 2.3 mph - N/A   Clear
12:43 AM 64.4 °F - 62.6 °F 94% 30.01 in 8.0 mi Calm Calm - N/A   Clear
12:53 AM 66.2 °F - 62.6 °F 88% 30.01 in 9.0 mi Calm Calm - N/A   Clear
12:58 AM 66.0 °F - 61.7 °F 86% 30.02 in 10.0 mi Calm Calm - N/A   Clear
1:58 AM 65.8 °F - 60.4 °F 83% 30.01 in 10.0 mi WSW 2.3 mph - N/A   Clear
2:58 AM 63.9 °F - 60.4 °F 89% 30.00 in 8.0 mi Calm Calm - N/A   Clear
3:58 AM 62.1 °F - 59.9 °F 93% 30.00 in 5.0 mi Calm Calm - N/A   Clear
4:43 AM 64.4 °F - 59.0 °F 83% 29.98 in 5.0 mi West 2.3 mph - N/A   Haze
4:48 AM 62.6 °F - 59.0 °F 88% 29.98 in 7.0 mi West 1.2 mph - N/A   Clear
4:53 AM 62.6 °F - 59.0 °F 88% 29.98 in 7.0 mi Calm Calm - N/A   Clear
4:58 AM 63.1 °F - 59.4 °F 87% 29.99 in 7.0 mi Calm Calm - N/A   Clear
5:08 AM 62.6 °F - 59.0 °F 88% 29.98 in 7.0 mi Calm Calm - N/A   Clear
5:53 AM 60.8 °F - 59.0 °F 94% 29.99 in 6.0 mi Calm Calm - N/A   Clear
5:58 AM 61.0 °F - 58.8 °F 93% 30.00 in 6.0 mi Calm Calm - N/A   Clear
6:58 AM 63.9 °F - 59.4 °F 85% 30.02 in 7.0 mi Calm Calm - N/A   Clear
7:58 AM 66.4 °F - 60.3 °F 81% 30.04 in 10.0 mi Calm Calm - N/A   Clear
8:58 AM 72.1 °F - 60.6 °F 67% 30.05 in 10.0 mi WNW 2.3 mph - N/A   Clear
9:58 AM 77.9 °F - 63.0 °F 60% 30.06 in 10.0 mi West 4.6 mph - N/A   Clear
10:58 AM 82.6 °F 84.1 °F 64.2 °F 54% 30.06 in 10.0 mi WNW 4.6 mph - N/A   Clear
11:58 AM 82.9 °F 84.2 °F 63.9 °F 52% 30.05 in 10.0 mi WSW 5.8 mph - N/A   Clear
12:58 PM 85.3 °F 86.6 °F 64.2 °F 49% 30.01 in 10.0 mi Variable 5.8 mph - N/A   Partly Cloudy
1:58 PM 86.4 °F 87.8 °F 64.6 °F 48% 30.00 in 10.0 mi SW 9.2 mph - N/A   Partly Cloudy
2:58 PM 85.3 °F 86.4 °F 63.5 °F 48% 29.98 in 10.0 mi WSW 3.5 mph - N/A   Mostly Cloudy
3:58 PM 85.6 °F 87.1 °F 64.4 °F 49% 29.97 in 10.0 mi Variable 4.6 mph - N/A   Scattered Clouds
4:58 PM 84.6 °F 85.6 °F 63.5 °F 49% 29.97 in 10.0 mi WNW 3.5 mph - N/A   Mostly Cloudy
5:58 PM 83.1 °F 85.4 °F 66.2 °F 57% 29.97 in 10.0 mi NNE 2.3 mph - N/A   Overcast
6:41 PM 84.2 °F 86.6 °F 66.2 °F 55% 29.96 in 9.0 mi NNE 1.2 mph - N/A Rain Light Rain
6:51 PM 82.4 °F 85.4 °F 68.0 °F 62% 29.96 in 10.0 mi South 2.3 mph - N/A   Overcast
6:58 PM 82.8 °F 85.8 °F 68.2 °F 61% 29.97 in 10.0 mi SW 3.5 mph - 0.00 in   Overcast
7:58 PM 79.7 °F - 68.5 °F 69% 29.98 in 10.0 mi Calm Calm - N/A   Mostly Cloudy
8:53 PM 77.0 °F - 69.8 °F 78% 29.97 in 8.0 mi SW 2.3 mph - N/A   Partly Cloudy
8:58 PM 76.3 °F - 67.8 °F 75% 29.98 in 8.0 mi SW 4.6 mph - N/A   Clear
9:03 PM 78.8 °F - 64.4 °F 61% 29.97 in 10.0 mi SW 5.8 mph - N/A   Clear
9:58 PM 73.4 °F - 68.4 °F 84% 29.99 in 10.0 mi NE 2.3 mph - N/A   Clear
10:58 PM 78.1 °F - 66.2 °F 67% 29.99 in 10.0 mi SSW 9.2 mph - N/A   Partly Cloudy
11:58 PM 76.6 °F - 66.7 °F 71% 29.99 in 10.0 mi SSW 8.1 mph - N/A   Mostly Cloudy